Location: Newark
(45.9456°N, 15.4064°E)
Time: 10:56:39
(UTC+00:00)

Vanguard 3 - Pass Details

Date: 02 February 2020
Orbit: 508 x 3263 km, 33.3° (Epoch: 22 February)

Event Time Altitude Azimuth Distance (km) Brightness Sun altitude
Rises 19:11:47 0° 275° (W) 7,155 13.1 -32.7°
Reaches altitude 10° 19:17:03 10° 269° (W) 6,201 12.4 -33.6°
Maximum altitude 19:33:57 38° 211° (SSW) 3,960 10.6 -36.4°
Enters shadow 19:41:38 26° 169° (S) 4,128 10.4 -37.7°
Drops below altitude 10° 19:47:07 10° 151° (SSE) 4,845 - -38.6°
Sets 19:50:40 0° 143° (SE) 5,501 - -39.2°
